Location: Bishop�s Knoyle
(51.0728°N, 2.1714°W)
Time: 10:36:56
(UTC+00:00)

ATLAS CENTAUR R/B - Pass Details

Date: 21 January 2021
Orbit: 471 x 674 km, 64.6° (Epoch: 24 February)

Event Time Altitude Azimuth Distance (km) Brightness Sun altitude
Rises 05:50:54 0° 172° (S) 2,529 4.9 -19.8°
Reaches altitude 10° 05:53:51 10° 147° (SSE) 1,639 4.3 -19.4°
Maximum altitude 05:55:47 14° 114° (ESE) 1,409 4.4 -19.1°
Drops below altitude 10° 05:57:43 10° 82° (E) 1,639 4.9 -18.8°
Sets 06:00:39 0° 56° (NE) 2,528 5.4 -18.3°
